Tracking 19706 objects as of 16-Jun-2019
HD Live streaming from Space Station
objects crossing your sky now

WESTFORD NEEDLES

Track WESTFORD NEEDLES now!
10-day predictions
WESTFORD NEEDLES is classified as:


NORAD ID: 20504
Int'l Code: 1963-014FD
Perigee: 1,106.3 km
Apogee: 5,921.6 km
Inclination: 85.4 °
Period: 163.0 minutes
Semi major axis: 9884 km
RCS: 0.1216 m2 (medium)
Launch date: May 9, 1963
Source: United States (US)
Launch site: AIR FORCE WESTERN TEST RANGE (AFWTR)
aabbcc
Your satellite tracking list
Your tracking list is empty




NASA's NSSDC Master Catalog

Two Line Element Set (TLE):
1 20504U 63014FD  19126.14942481  .00009121  00000-0  13157+0 0  9996
2 20504  85.3531 199.2225 2435652 268.6507  63.6960  8.83362772832301
Source of the keplerian elements: AFSPC